Tracking 23757 objects as of 26-Oct-2021
HD Live streaming from Space Station
objects crossing your sky now

SPACEBEE-13

Track SPACEBEE-13 now!
10-day predictions


NORAD ID: 46310
Int'l Code: 2020-061AQ
Perigee: 532.6 km
Apogee: 533.6 km
Inclination: 97.5 °
Period: 95.2 minutes
Semi major axis: 6904 km
RCS: Unknown
Launch date: September 3, 2020
Source: United States (US)
Launch site: FRENCH GUIANA (FRGUI)
aabbcc
Your satellite tracking list
Your tracking list is empty




NASA's NSSDC Master Catalog

Two Line Element Set (TLE):
1 46310U 20061AQ  21299.44286487  .00005943  00000-0  33676-3 0  9998
2 46310  97.4790  10.8425 0000726 108.4710 251.6600 15.13372002 63146
Source of the keplerian elements: AFSPC